Location: Chuathbaluk
(61.5726°N, 159.2454°W)
Time: 05:06:05
(UTC+00:00)

Transit 4A - Pass Details

Date: 26 November 2020
Orbit: 864 x 980 km, 66.8° (Epoch: 26 January)

Event Time Altitude Azimuth Distance (km) Brightness Sun altitude
Rises 00:42:10 0° 291° (WNW) 3,689 11.2 2.9°
Reaches altitude 10° 00:44:47 10° 295° (WNW) 2,743 10.5 2.8°
Maximum altitude 00:51:09 60° 15° (NNE) 1,119 8.2 2.4°
Drops below altitude 10° 00:57:28 10° 95° (E) 2,713 10.1 1.9°
Sets 01:00:03 0° 99° (E) 3,647 10.7 1.8°
